Погода в Вознесенке

Россия / Челябинская область     54°59′25″N   61°21′53″E
темп.,
°C
ветер,
м/с
пор.,
м/с
влажн.,
%
обл.,
%
осадки,
мм/ч
давл.,
гПа
погр.,
м
2 марта, вт
вт223:00−18ююз229888 0.1 101720
02:00−18юз239850 0.0 101720
05:00−19юз239737 0.0 101620
08:00−18ююз349651 0.0 101437
11:00−14ююз359325 0.0 1012233
14:00−10ююз479258 0.0 1009344
17:00−9ююз599071 0.0 1007390
20:00−11ююз51091100 0.0 1005252
3 марта, ср
ср323:00−7юз61389100 0.1 1005467
02:00−11юз51088100 0.0 1004224
05:00−10юз6119399 0.5 1003339
08:00−8юз61290100 0.1 1001366
11:00−5юз61084100 0.1 1001391
14:00−3юз698513 0.0 1000463
17:00−2юз5108637 0.0 1000438
20:00−5юз4990100 0.0 1001198
4 марта, чт
чт423:00−6зюз3393100 0.0 100144
02:00−7ююз1290100 0.0 100021
05:00−9зюз2287100 0.0 99921
08:00−10зюз348568 0.0 99943
11:00−5з698269 0.0 999635
14:00−5зсз71077100 0.0 10001108
17:00−6з5108193 0.0 1001709
20:00−10юз458530 0.0 100277
5 марта, пт
пт523:00−11юз5108621 0.0 1003177
02:00−7юз81581100 0.0 1001498
05:00−7юз91684100 0.0 1000507
08:00−4юз91781100 0.0 999528
11:000зюз7128198 0.0 10001252
14:00+1юз81283100 0.1 1001891
17:000юз71393100 0.1 1001916
20:00−2юз71584100 0.1 1000471
6 марта, сб
сб623:00−2ююз7178599 0.1 999630
02:00−6зсз7148541 0.0 1003498
05:00−10зсз6148321 0.0 1008388
08:00−13з513860 0.0 1011341
11:00−10з611810 0.0 1012636
14:00−8з6107941 0.0 1013783
17:00−8з378470 0.0 1013481
20:00−11зюз1187100 0.0 101221